Location: Unspecified
(48.5670°N, 0.0000°E)
Time: 04:42:07
(UTC+00:00)

Vanguard 1 - All Passes

Search period start: 24 July 2019 00:00
Search period end: 03 August 2019 00:00
Orbit: 653 x 3830 km, 34.3° (Epoch: 22 July)

Date Brightness Start Highest point End Pass type
(mag) Time Alt. Az. Time Alt. Az. Time Alt. Az.
24 Jul - 00:16:33 10° W 00:34:23 34° SW 00:52:52 10° SSE visible
24 Jul - 02:48:48 10° WSW 02:55:56 12° SW 03:02:50 10° SW visible
24 Jul - 17:35:24 10° SSW 17:45:34 33° SE 18:01:24 10° E daylight
24 Jul - 19:53:26 10° WSW 20:07:23 50° S 20:28:32 10° ESE visible
24 Jul - 22:14:17 10° W 22:31:27 47° SSW 22:52:52 10° SE visible
25 Jul - 00:38:22 10° W 00:55:00 29° SW 01:12:07 10° S visible
25 Jul - 15:42:11 10° SSE 15:46:53 13° SE 15:52:41 10° ESE daylight
25 Jul - 17:55:28 10° SW 18:06:03 38° SSE 18:23:03 10° E daylight
25 Jul - 20:14:09 10° WSW 20:28:22 51° S 20:49:43 10° ESE visible
25 Jul - 22:35:25 10° W 22:52:26 43° SSW 23:13:15 10° SE visible
26 Jul - 01:00:40 10° W 01:15:30 23° SW 01:30:44 10° S visible
26 Jul - 16:00:25 10° S 16:06:56 19° SE 16:15:56 10° E daylight
26 Jul - 18:15:46 10° SW 18:26:41 42° SSE 18:44:34 10° E daylight
26 Jul - 20:34:58 10° WSW 20:49:25 50° S 21:10:45 10° ESE visible
26 Jul - 22:56:42 10° W 23:13:20 38° SSW 23:33:20 10° SSE visible
27 Jul - 01:23:51 10° W 01:35:55 18° SW 01:48:15 10° SSW visible
27 Jul - 16:19:37 10° S 16:27:07 24° SE 16:38:15 10° E daylight
27 Jul - 18:36:13 10° SW 18:47:27 45° SSE 19:05:59 10° ESE daylight
27 Jul - 20:55:52 10° WSW 21:10:27 48° S 21:31:37 10° SE visible
27 Jul - 23:18:10 10° W 23:34:10 33° SSW 23:53:00 10° SSE visible
28 Jul - 01:49:22 10° WSW 01:56:15 12° SW 02:03:13 10° SW visible
28 Jul - 16:39:21 10° SSW 16:47:25 29° SE 17:00:09 10° E daylight
28 Jul - 18:56:48 10° WSW 19:08:17 47° S 19:27:18 10° ESE daylight
28 Jul - 21:16:51 10° W 21:31:29 45° SSW 21:52:17 10° SE visible
28 Jul - 23:39:57 10° W 23:54:55 28° SW 00:12:11 10° S visible
29 Jul - 16:59:23 10° SSW 17:07:53 34° SSE 17:21:48 10° E daylight
29 Jul - 19:17:30 10° WSW 19:29:13 48° S 19:48:30 10° ESE daylight
29 Jul - 21:37:57 10° W 21:52:30 41° SSW 22:12:39 10° SE visible
30 Jul - 00:02:15 10° W 00:15:34 22° SW 00:30:37 10° S visible
30 Jul - 15:05:06 10° SSE 15:09:24 14° SE 15:14:52 10° ESE daylight
30 Jul - 17:19:39 10° SW 17:28:27 38° SSE 17:43:18 10° E daylight
30 Jul - 19:38:16 10° WSW 19:50:12 47° S 20:09:34 10° ESE daylight
30 Jul - 21:59:11 10° W 22:13:27 36° SSW 22:32:42 10° SSE visible
31 Jul - 00:25:31 10° WSW 00:36:10 16° SW 00:47:49 10° SSW visible
31 Jul - 15:24:02 10° S 15:29:36 19° SE 15:37:25 10° E daylight
31 Jul - 17:40:06 10° SW 17:49:10 41° SSE 18:04:42 10° ESE daylight
31 Jul - 19:59:08 10° WSW 20:11:12 44° S 20:30:26 10° SE visible
31 Jul - 22:20:38 10° W 22:34:21 31° SSW 22:52:18 10° SSE visible
01 Aug - 00:51:56 10° WSW 00:56:42 11° SW 01:01:37 10° SW visible
01 Aug - 15:43:40 10° SSW 15:49:54 24° SE 15:59:21 10° E daylight
01 Aug - 18:00:39 10° WSW 18:09:57 43° S 18:26:00 10° ESE daylight
01 Aug - 20:20:05 10° WSW 20:32:13 41° SSW 20:51:05 10° SE visible
01 Aug - 22:42:26 10° W 22:55:12 25° SW 23:11:20 10° S visible
02 Aug - 16:03:39 10° SSW 16:10:20 29° SSE 16:20:59 10° E daylight
02 Aug - 18:21:18 10° WSW 18:30:49 43° S 18:47:10 10° ESE daylight
02 Aug - 20:41:08 10° WSW 20:53:13 37° SSW 21:11:25 10° SE visible
02 Aug - 23:04:49 10° WSW 23:16:00 20° SW 23:29:31 10° S visible
